Oak Ridge, TN

12:58 AM EDT on June 29, 2017 (GMT -0400)
Oak Ridge

Weather History for KOQT - January, 2013

Change the Weather History Date:

Monday, January 28, 2013

  Actual Average (KTYS) Record (KTYS)
Temperature  
Mean Temperature 48 °F -  
Max Temperature 52 °F 49 °F 74 °F (1876)
Min Temperature 43 °F 28 °F -3 °F (1940)
Degree Days  
Heating Degree Days 18    
Moisture  
Dew Point 39 °F    
Average Humidity 72    
Maximum Humidity 86    
Minimum Humidity 59    
Precipitation  
Precipitation 0.00 in - - ()
Sea Level Pressure  
Sea Level Pressure 30.32 in    
Wind  
Wind Speed 3 mph (WSW)    
Max Wind Speed 7 mph    
Max Gust Speed -    
Visibility 9 miles    
Events Rain    
Averages and records for this station are not official NWS values.
T = Trace of Precipitation, MM = Missing Value Source: NWS Daily Summary

Daily Weather History Graph

Daily Weather History Graph

Search for Another Location

Airport or City:

Trip Planner

Search our weather history database for the weather conditions in past years. The results will help you decide how hot, cold, wet, or windy it might be!

Date:

Astronomy

Jan. 28, 2013 Rise Set
Actual Time 7:40 AM EST 5:59 PM EST
Civil Twilight 7:13 AM EST 6:27 PM EST
Nautical Twilight 6:42 AM EST 6:57 PM EST
Astronomical Twilight 6:12 AM EST 7:28 PM EST
Moon 7:48 PM EST (1/28) 8:09 AM EST (1/28)
Length of Visible Light 11h 13m
Length of Day
10h 19m
Full, 98% of the Moon is Illuminated
Jan 28
Full
Feb 3
Last Quarter
Feb 10
New
Feb 17
First Quarter
Feb 25
Full

Hourly Weather History & Observations

Time (EST) Temp. Windchill Dew Point Humidity Pressure Visibility Wind Dir Wind Speed Gust Speed Precip Events Conditions
12:53 AM 43.0 °F - 39.0 °F 86% 30.37 in 10.0 mi Calm Calm - N/A   Overcast
1:53 AM 45.0 °F 42.6 °F 36.0 °F 71% 30.36 in 10.0 mi SSW 4.6 mph - N/A   Overcast
2:53 AM 45.0 °F 42.6 °F 35.1 °F 68% 30.37 in 10.0 mi Variable 4.6 mph - N/A   Overcast
3:53 AM 43.0 °F 40.3 °F 35.1 °F 74% 30.36 in 10.0 mi SSW 4.6 mph - N/A   Mostly Cloudy
4:53 AM 44.1 °F 41.5 °F 34.0 °F 68% 30.38 in 10.0 mi Variable 4.6 mph - N/A   Overcast
5:53 AM 45.0 °F - 33.1 °F 63% 30.37 in 10.0 mi Calm Calm - N/A   Overcast
6:53 AM 44.1 °F - 33.1 °F 65% 30.38 in 10.0 mi Calm Calm - N/A   Overcast
7:04 AM 44.6 °F 43.1 °F 32.0 °F 61% 30.36 in 10.0 mi SW 3.5 mph - N/A   Overcast
7:53 AM 45.0 °F 43.5 °F 33.1 °F 63% 30.39 in 10.0 mi SW 3.5 mph - N/A   Overcast
8:53 AM 46.0 °F 44.8 °F 33.1 °F 61% 30.39 in 10.0 mi SW 3.5 mph - N/A   Overcast
9:53 AM 46.9 °F - 33.1 °F 59% 30.38 in 10.0 mi Calm Calm - N/A   Overcast
11:34 AM 46.4 °F 43.5 °F 35.6 °F 66% 30.34 in 10.0 mi West 5.8 mph - N/A   Overcast
11:53 AM 48.0 °F - 37.0 °F 66% 30.36 in 10.0 mi Variable 3.5 mph - N/A   Overcast
12:53 PM 48.0 °F - 39.0 °F 71% 30.33 in 10.0 mi Variable 5.8 mph - N/A   Overcast
1:38 PM 48.2 °F - 41.0 °F 76% 30.29 in 9.0 mi Variable 5.8 mph - N/A   Overcast
1:53 PM 48.9 °F - 41.0 °F 74% 30.30 in 9.0 mi WSW 6.9 mph - N/A   Overcast
2:53 PM 50.0 °F - 43.0 °F 77% 30.28 in 8.0 mi WSW 5.8 mph - N/A   Overcast
3:53 PM 51.1 °F - 44.1 °F 77% 30.27 in 8.0 mi WSW 4.6 mph - N/A   Overcast
4:21 PM 51.8 °F - 44.6 °F 76% 30.25 in 8.0 mi West 4.6 mph - N/A   Overcast
4:53 PM 52.0 °F - 44.1 °F 74% 30.26 in 8.0 mi WSW 3.5 mph - N/A   Overcast
5:53 PM 52.0 °F - 45.0 °F 77% 30.26 in 8.0 mi SW 3.5 mph - N/A   Overcast
6:53 PM 51.1 °F - 45.0 °F 80% 30.27 in 9.0 mi SW 3.5 mph - 0.00 in Rain Light Rain
7:53 PM 51.1 °F - 46.0 °F 83% 30.27 in 8.0 mi SSW 3.5 mph - 0.00 in   Overcast
8:53 PM 52.0 °F - 46.0 °F 80% 30.27 in 8.0 mi West 4.6 mph - N/A   Overcast
9:53 PM 52.0 °F - 46.0 °F 80% 30.26 in 8.0 mi West 3.5 mph - N/A   Overcast
10:53 PM 52.0 °F - 46.0 °F 80% 30.25 in 8.0 mi Variable 3.5 mph - N/A   Overcast
11:53 PM 52.0 °F - 46.0 °F 80% 30.26 in 8.0 mi SW 3.5 mph - N/A   Mostly Cloudy